Dewpoint
54 39 34 31 23 19 17 19 27 33 35 45 46 42 39 39 31 32 51 50 49 48 45 46 54 55 57 58 59 60 61 64 66 67 67 67 66 67 67 67 68 68 68 67 67 66 67 66 67
45 33 31 24 14 11 8 19 26 31 41 44 43 41 38 33 44 48 50 50 49 47 43 45 52 53 55 56 58 59 60 62 64 65 66 66 66 66 67 67 67 67 67 67 67 66 67 67 67
44 30 24 17 11 5 9 23 24 38 43 42 40 41 38 33 45 46 49 49 48 44 42 43 51 52 53 53 55 57 58 60 62 64 66 66 65 66 66 67 67 67 67 66 66 67 67 67 66
34 27 21 13 11 11 14 24 30 37 42 44 40 33 41 46 45 47 47 48 46 42 41 45 48 49 50 51 53 55 57 58 59 63 64 66 66 65 66 66 67 67 67 67 66 68 67 66 65
29 24 17 16 13 18 22 26 29 31 32 32 35 27 33 44 46 45 45 47 45 40 41 43 45 47 48 49 51 52 54 56 58 59 62 64 65 65 65 66 66 66 66 67 67 68 67 66 66
23 22 14 11 9 21 25 28 30 31 31 31 32 30 33 45 44 42 44 45 43 39 40 41 44 42 44 46 48 49 51 53 55 58 59 61 63 64 64 64 65 65 66 66 67 68 67 66 65
26 21 14 14 9 15 23 30 29 28 28 29 32 27 30 42 41 40 44 45 44 40 41 40 41 41 43 41 44 46 48 50 52 55 57 59 60 62 63 63 62 63 64 65 65 67 66 64 64
23 17 13 11 9 14 28 29 30 29 26 33 33 22 24 35 41 42 46 45 43 40 42 40 39 39 40 41 45 44 45 47 49 52 54 57 58 61 62 63 62 62 63 65 65 65 64 64 63
27 14 10 12 14 18 27 27 31 32 30 31 32 28 30 39 40 44 45 45 44 41 39 39 40 38 39 37 35 44 46 46 48 50 54 55 57 58 60 61 62 62 62 64 64 65 64 63 62
23 17 11 19 19 19 23 25 24 24 24 26 26 28 32 37 39 40 41 40 41 40 40 41 39 39 38 34 37 37 35 37 39 42 46 52 55 57 59 59 60 61 61 62 64 63 63 62 61
22 14 22 18 22 23 22 22 24 22 18 16 16 19 27 34 35 38 39 39 39 37 40 40 39 38 38 38 37 36 35 36 37 39 43 50 53 57 59 62 62 61 59 62 62 62 60 61 60
17 20 21 24 27 26 23 23 21 19 19 21 21 23 28 32 32 34 37 37 38 38 39 40 41 38 39 39 37 36 34 35 35 36 41 49 52 57 57 60 60 62 63 62 60 59 59 59 59
19 17 22 24 25 23 22 21 18 17 17 19 23 29 30 30 32 34 36 39 39 39 39 41 41 40 38 39 38 37 36 35 38 39 38 44 52 54 57 58 60 61 62 61 60 59 58 58 58
22 22 20 21 21 22 22 18 23 17 21 20 21 25 27 29 32 34 36 37 38 38 40 42 41 40 39 37 38 37 37 37 39 41 39 44 51 54 55 57 59 59 61 60 59 58 58 57 57
22 18 15 17 20 19 25 19 19 20 22 20 22 22 24 27 30 32 35 37 36 37 39 41 40 39 39 37 37 37 37 38 41 42 41 46 50 52 53 56 57 59 60 59 58 58 57 57 57
20 19 13 21 24 24 22 6 10 17 19 19 18 21 25 27 29 31 33 35 34 36 36 39 34 37 39 38 38 37 36 39 41 43 43 45 49 51 53 55 56 58 59 59 58 57 56 56 56
21 12 12 12 21 21 20 12 15 16 18 17 16 19 20 20 24 24 27 31 33 35 36 36 35 36 38 39 39 38 39 41 42 42 42 46 49 50 51 53 55 57 59 58 57 57 56 55 54
16 10 6 6 16 17 15 14 13 13 14 15 16 14 15 16 20 26 28 31 33 33 34 33 33 34 36 38 37 39 42 42 42 43 46 48 48 49 50 52 54 56 58 57 57 56 56 55 54
11 7 6 7 18 15 13 13 13 13 15 16 17 16 14 15 21 28 29 32 32 32 31 30 32 33 35 34 36 40 41 41 43 46 47 46 47 49 50 50 52 55 57 56 56 56 55 54 55
14 11 12 12 15 17 15 13 14 11 16 19 19 18 18 19 25 27 28 30 31 30 30 31 31 33 33 33 38 40 41 41 43 45 45 46 47 48 49 50 51 53 56 56 55 55 54 54 55
15 14 12 14 19 17 16 14 6 11 15 18 19 19 18 21 22 25 27 29 31 31 31 30 31 31 31 35 38 40 41 42 44 43 44 45 46 48 50 51 51 52 54 56 55 55 54 53 55
12 20 19 19 19 18 16 14 12 7 9 15 17 20 19 23 25 24 26 28 30 32 31 31 31 30 31 35 37 38 39 39 41 42 44 45 46 48 49 50 51 51 54 55 56 56 56 54 52
21 24 21 22 22 21 18 11 8 1 5 4 7 15 17 21 24 24 26 28 30 33 33 33 31 30 32 36 38 38 38 40 41 42 42 45 46 47 48 49 49 51 52 55 57 56 56 54 53
26 24 21 23 23 31 21 9 14 -2 1 1 4 8 16 20 23 24 27 30 30 33 33 33 29 28 32 37 38 38 38 39 40 40 42 44 45 46 47 48 48 50 51 53 56 57 56 55 55
25 21 34 34 32 31 15 12 15 6 3 1 4 8 13 19 22 23 26 29 29 31 31 30 27 27 34 37 38 38 38 39 39 39 41 42 43 45 46 46 48 49 51 52 55 57 57 56 55
22 20 38 34 28 19 11 13 15 12 9 9 8 8 13 19 21 24 25 28 30 31 30 28 25 29 35 37 38 38 38 38 38 39 40 42 43 44 45 46 47 48 50 52 55 57 57 57 56
24 25 20 29 19 21 18 14 12 14 6 9 10 13 15 16 19 23 25 27 28 29 30 26 26 33 36 37 37 37 38 38 38 39 40 42 42 42 44 46 47 48 51 53 55 57 57 57 56
24 19 23 29 31 27 26 18 20 16 5 8 10 13 14 15 18 22 25 27 28 28 28 26 28 34 37 37 37 38 38 39 39 39 39 41 42 43 44 46 47 49 53 55 57 57 57 56 56
20 22 18 22 21 32 30 22 23 13 5 15 13 14 13 14 19 22 24 26 29 29 28 25 30 35 37 37 38 38 38 38 39 39 40 41 43 43 44 46 48 53 56 57 57 57 57 56 55
22 19 18 30 31 20 24 24 25 19 12 13 13 10 12 16 20 22 23 27 28 28 27 26 32 37 37 37 38 38 38 38 39 40 40 42 42 44 44 46 50 56 56 57 57 56 56 55 54
Lifted_Index
8 9 10 8 6 5 5 5 5 5 4 4 4 4 5 5 5 5 5 5 6 7 8 9 10 10 9 8 8 7 5 4 2 1 0 0 -0 -0 -1 -1 -1 -2 -2 -2 -1 -1 -1 -1 -1
9 10 10 8 5 4 4 5 5 5 4 4 4 5 5 6 5 5 6 6 6 8 9 11 11 11 10 9 8 7 6 4 3 1 1 0 0 -0 -0 -1 -1 -1 -2 -2 -2 -1 -1 -1 -1
9 10 9 7 5 4 5 5 6 5 4 4 5 6 6 6 6 6 7 7 8 9 11 12 13 12 11 11 10 8 7 6 4 3 2 1 1 0 0 -0 -1 -1 -1 -1 -1 -1 -1 -1 -1
9 9 8 6 5 5 5 6 6 6 5 5 6 6 7 6 6 7 8 8 9 11 12 13 14 14 13 12 11 10 9 8 7 5 3 2 1 1 0 0 -0 -1 -1 -1 -1 -1 -1 -1 -0
9 8 6 5 4 5 6 7 7 6 6 6 7 7 7 7 7 8 9 9 10 12 13 14 15 15 14 14 13 12 11 10 8 6 4 2 0 -0 -0 -0 -0 -0 -1 -1 -1 -1 -1 -0 0
8 7 5 4 4 5 6 7 7 7 7 7 7 7 7 8 8 9 9 9 11 12 13 14 15 15 15 15 15 14 13 12 10 7 5 3 1 -1 -1 -1 -0 -0 -0 -1 -1 -1 0 1 1
7 6 5 4 4 5 6 7 7 7 7 7 7 7 7 8 9 9 9 10 11 12 13 14 14 15 15 16 16 16 15 13 11 9 6 4 2 -0 -1 -1 -1 -0 -0 -1 -1 -0 1 2 2
7 6 4 4 4 4 6 7 7 7 7 8 8 8 8 9 9 10 9 10 11 12 13 13 14 15 15 16 16 16 15 14 12 9 7 5 3 0 -1 -1 -1 -0 0 -0 -0 0 1 2 2
7 5 4 4 4 5 6 6 7 8 7 8 8 9 9 10 10 10 10 10 11 12 12 13 14 15 15 16 16 16 15 13 12 10 8 5 3 1 -1 -1 -1 -0 0 0 0 1 2 2 2
6 5 4 5 5 6 6 6 7 7 7 7 8 10 10 10 10 10 10 10 11 11 12 13 14 14 15 15 15 15 14 13 12 11 9 6 4 1 -0 -1 -1 -1 0 0 1 1 2 2 3
5 5 5 6 6 6 6 6 7 6 6 7 8 9 10 11 11 11 10 10 11 11 12 12 13 14 14 14 14 14 14 13 13 12 10 7 4 2 0 -1 -1 -1 -1 -0 1 2 2 2 3
5 5 6 6 7 7 6 6 6 6 7 8 9 10 10 11 11 11 11 11 11 11 12 12 13 14 14 13 13 13 13 14 13 12 11 8 5 3 1 -1 -2 -2 -1 -0 1 2 2 2 3
5 5 6 7 7 7 6 6 6 6 8 9 10 10 10 11 11 11 11 11 11 11 12 12 13 13 13 13 13 13 14 14 13 12 10 8 5 3 2 0 -1 -2 -2 -0 1 2 2 3 3
6 6 6 6 7 7 6 6 5 6 7 8 9 9 10 11 11 11 11 11 11 12 12 12 13 13 13 13 13 13 14 14 12 10 9 8 6 4 2 1 -1 -2 -1 -1 0 1 2 3 3
6 6 5 6 6 6 6 5 5 6 7 8 8 9 10 11 11 11 11 11 12 12 13 13 13 14 13 13 13 14 14 13 11 9 8 7 5 4 3 1 -0 -1 -1 -0 1 1 2 3 3
5 5 5 5 6 6 5 4 5 7 7 7 8 9 10 11 11 11 12 12 13 13 13 14 14 14 14 14 14 14 14 12 10 8 7 6 5 4 3 2 0 -1 -1 -0 1 1 2 3 3
4 4 4 5 6 6 5 5 6 7 7 7 7 8 9 10 11 12 12 13 13 14 14 15 15 15 14 14 14 14 13 11 9 8 7 6 5 4 3 2 1 -0 -1 -0 1 1 2 3 3
4 4 4 5 6 6 5 5 6 7 7 7 7 7 8 9 11 12 13 13 14 14 15 15 15 15 15 14 14 13 11 10 9 8 7 6 4 4 3 2 1 0 -0 -0 0 1 2 3 3
4 4 4 5 6 5 5 5 6 6 6 6 6 7 8 9 10 12 13 13 14 15 15 16 16 15 15 15 14 12 11 9 9 8 7 5 5 4 3 2 1 1 0 0 0 1 2 3 3
4 4 4 5 5 5 5 5 5 6 6 6 6 7 7 9 10 11 12 13 14 15 15 16 16 16 15 15 13 11 10 9 9 8 7 5 5 4 3 2 1 1 1 1 1 2 2 3 4
4 4 5 5 5 5 4 4 4 5 6 7 7 7 8 9 10 11 12 13 13 14 16 16 17 16 16 15 13 11 10 9 8 7 6 5 4 4 3 2 2 1 1 1 2 2 3 3 4
4 5 5 5 4 4 4 3 4 5 5 6 7 7 8 9 10 10 11 12 13 15 16 17 17 17 16 14 12 11 10 9 8 7 5 4 4 3 2 2 2 1 1 1 2 2 3 4 4
5 5 5 5 4 3 3 3 3 4 5 5 6 7 8 9 9 9 10 11 13 15 16 16 17 17 16 13 12 11 10 9 7 6 5 3 3 2 2 2 2 1 1 2 2 3 3 4 4
5 5 5 4 3 2 3 3 3 4 5 6 6 7 8 8 8 8 9 10 12 14 16 16 16 16 15 13 12 11 10 9 7 5 4 3 2 2 1 2 2 2 2 3 3 3 3 4 4
5 4 3 2 1 2 3 3 3 4 5 6 7 7 7 7 7 7 8 10 11 13 15 15 15 15 14 13 12 11 10 8 6 5 3 2 1 1 1 1 2 2 3 4 3 3 3 3 3
4 3 2 1 1 2 3 3 4 5 6 7 7 6 6 6 6 7 8 9 11 12 14 15 15 14 13 13 12 11 10 8 6 4 3 2 1 1 1 1 1 3 4 4 4 3 3 3 3
4 3 3 2 2 2 2 3 4 5 6 6 6 6 6 6 6 6 8 9 11 12 14 15 14 14 13 13 12 11 10 8 6 4 2 1 1 1 1 1 2 3 4 4 3 3 3 3 3
4 4 3 3 2 1 1 2 3 4 5 6 6 6 6 7 6 6 7 9 11 12 14 15 14 14 13 13 12 12 10 8 6 4 2 2 1 1 1 1 2 3 4 3 3 3 3 3 3
3 3 3 3 2 1 1 2 3 4 5 6 6 6 7 8 7 6 7 9 10 12 14 15 14 14 14 13 13 12 11 9 6 4 3 2 2 1 1 1 1 2 3 2 2 2 3 3 3
3 3 3 3 2 2 2 2 4 4 5 6 7 7 7 8 8 7 7 8 10 12 13 14 14 14 14 14 13 12 11 9 6 4 2 2 2 1 1 1 1 2 2 2 2 2 2 3 3